Regional Weather Roundup
Issued by NWS

Home | Current Version | Previous Version | Graphics & Text | Print | Product List | Glossary On
Versions: 1 2 3 4 5 6 7 8 9 10 11 12 13 14 15 16 17 18 19 20 21 22 23 24 25 26 27 28 29 30 31 32 33 34 35 36 37 38 39 40 41 42 43 44 45 46 47 48 49 50
000
ASUS44 KMEG 301810
RWRTN
TENNESSEE HOURLY STATE WEATHER ROUNDUP
NATIONAL WEATHER SERVICE MEMPHIS TN
100 PM CDT TUE JUN 30 2015

TNZ002-004-019-021-049-052-054-088>092-301900-
WEST TENNESSEE

CITY           SKY/WX    TMP DP  RH WIND       PRES   REMARKS
MEMPHIS INTL   CLOUDY    85  72  65 VRB6      29.97F HX  91
NWS MEMPHIS      N/A     85 N/A N/A MISG        N/A
JACKSON        SUNNY     86  69  56 SW9       29.96S HX  90
DYERSBURG        N/A    N/A N/A N/A MISG        N/A
PARIS          PTSUNNY   81  68  65 SW9       29.95S
LEXINGTON      MOSUNNY   84  70  61 W8        29.95S
$$

TNZ008-025-027-028-033-062-065-066-301900-
NORTH MIDDLE TENNESSEE

CITY           SKY/WX    TMP DP  RH WIND       PRES   REMARKS
NASHVILLE      CLOUDY    84  70  62 W9        29.92F
CLARKSVILLE    PTSUNNY   82  67  60 W10       29.92F
SMYRNA         PTSUNNY   84  71  65 W13       29.92F
COOKEVILLE     SUNNY     84  75  74 SW8       29.93F HX  92
CROSSVILLE     PTSUNNY   77  68  73 W13       29.98F THUNDER
$$

TNZ061-075-076-078-094-096-097-301900-
SOUTH MIDDLE TENNESSEE

CITY           SKY/WX    TMP DP  RH WIND       PRES   REMARKS
FAYETTEVILLE   MOSUNNY   81  70  69 SW15      29.98F
TULLAHOMA      MOSUNNY   81  68  65 SW14      29.97F
WINCHESTER     MOSUNNY   81  72  74 W9        29.97F
MCMINNVILLE    MOSUNNY   82  73  74 SW9       29.95F
COLUMBIA       MOSUNNY   84  72  65 SW10      29.94F
SHELBYVILLE    MOSUNNY   84  73  70 S12       29.95F HX  91
$$

TNZ017-018-042-046-047-301900-
NORTHEAST TENNESSEE

CITY           SKY/WX    TMP DP  RH WIND       PRES   REMARKS
TRI CITIES     PTSUNNY   80  65  59 W10       29.98F
ELIZABETHTON   MOCLDY    79  64  61 SW9       29.99F
$$

TNZ012-013-036-069-073-074-301900-
CENTRAL EAST TENNESSEE

CITY           SKY/WX    TMP DP  RH WIND       PRES   REMARKS
KNOXVILLE      PTSUNNY   81  69  67 W10       29.93F
OAK RIDGE      PTSUNNY   80  68  66 VRB3      29.95F
GATLINBURG     MOCLDY    81  66  61 W7        29.94F
MORRISTOWN       N/A     81  68  65 SW8       29.97F
$$

TNZ083-085-099-301900-
SOUTHEAST TENNESSEE

CITY           SKY/WX    TMP DP  RH WIND       PRES   REMARKS
CHATTANOOGA    CLOUDY    82  64  54 SW12      29.96F
$$

SKY/WX REPORTED AS FAIR MEANS FEW OR NO CLOUDS BELOW
12 THOUSAND FEET.



USA.gov is the U.S. government's official web portal to all federal, state and local government web resources and services.